Regional Weather Roundup
Issued by NWS Charleston, WV

Home | Current Version | Previous Version | Text Only | Print | Product List | Glossary Off
Versions: 1 2 3 4 5 6 7 8 9 10 11 12 13 14 15 16 17 18 19 20 21 22 23 24 25 26 27 28 29 30 31 32 33 34 35 36 37 38 39 40 41 42 43 44 45 46 47 48 49 50

000
ASUS41 KRLX 311610
RWRRLX
West Virginia Regional Weather Roundup
National Weather Service Charleston WV
1100 AM EST SAT JAN 31 2015

Note: "fair" indicates few or no clouds below 12,000 feet with no
significant weather and/or obstructions to visibility.

WVZ003-311700-
Northern Panhandle of West Virginia

CITY           SKY/WX    TMP DP  RH WIND       PRES   REMARKS
WHEELING       SUNNY     18   9  68 SW10      30.35S WCI   6
$$

WVZ009-311700-
Northwest West Virginia

CITY           SKY/WX    TMP DP  RH WIND       PRES   REMARKS
PARKERSBURG    SUNNY     25  14  63 SW6       30.42S
$$

WVZ006-311700-
Western West Virginia

CITY           SKY/WX    TMP DP  RH WIND       PRES   REMARKS
HUNTINGTON     SUNNY     28  18  66 SW5       30.41S
$$

WVZ015-311700-
West Central West Virginia

CITY           SKY/WX    TMP DP  RH WIND       PRES   REMARKS
CHARLESTON     MOSUNNY   26  15  63 SW9       30.41S
$$

WVZ022-031-311700-
North Central West Virginia

CITY           SKY/WX    TMP DP  RH WIND       PRES   REMARKS
CLARKSBURG     SUNNY     21  11  65 SW7       30.38S
MORGANTOWN     SUNNY     20   7  57 SW7       30.37F
$$

WVZ025-035-042-045-311700-
Southern West Virginia

CITY           SKY/WX    TMP DP  RH WIND       PRES   REMARKS
BECKLEY        SUNNY     22  11  62 W8        30.30S
LOGAN          NOT AVBL
BLUEFIELD      SUNNY     25  10  53 W9        30.29R
LEWISBURG      SUNNY     27  11  51 SW6       30.28S
$$

WVZ047-311700-
Northern Mountains of West Virginia

CITY           SKY/WX    TMP DP  RH WIND       PRES   REMARKS
ELKINS         SUNNY     18   7  62 S3        30.33R
$$

WVZ052-311700-
Eastern Panhandle of West Virginia

CITY           SKY/WX    TMP DP  RH WIND       PRES   REMARKS
MARTINSBURG    SUNNY     24   5  44 NW13G20   30.34S
PETERSBURG     SUNNY     24   1  37 SE3       30.33F
$$



USA.gov is the U.S. government's official web portal to all federal, state and local government web resources and services.